カタログに戻る

INTELSAT 15

運用中通信GEO
NORAD 36106·PAYLOAD· XX

打ち上げ Nov 30, 2009 から Baikonur Cosmodrome

Loading…

TLE

最新Source: CelesTrak SupGP

元期: Sep 14, 2026, 00:00 UTC

1 36106C 09067A   26257.00000000 -.00000095  00000+0  00000+0 0  2570
2 36106   0.0000 171.3649 0002293   4.2237 262.5401  1.00271578    15

AllMySatでINTELSAT 15をリアルタイム追跡

Download on the App Store